Gaithersburg, MD

2:34 AM EDT on July 30, 2016 (GMT -0400)
Montgomery County

Weather History for KGAI - June, 2013

Change the Weather History Date:

Monday, June 3, 2013

  Actual Average (KCGS) Record (KCGS)
Temperature  
Mean Temperature 71 °F -  
Max Temperature 78 °F 81 °F 93 °F (1961)
Min Temperature 64 °F 59 °F 43 °F (1953)
Cooling Degree Days 6    
Growing Degree Days 21 (Base 50)    
Moisture  
Dew Point 64 °F    
Average Humidity 78    
Maximum Humidity 94    
Minimum Humidity 57    
Precipitation  
Precipitation 0.16 in - - ()
Sea Level Pressure  
Sea Level Pressure 29.90 in    
Wind  
Wind Speed 2 mph (NNW)    
Max Wind Speed 20 mph    
Max Gust Speed 23 mph    
Visibility 10 miles    
Events Thunderstorm    
Averages and records for this station are not official NWS values.
T = Trace of Precipitation, MM = Missing Value Source: NWS Daily Summary

Daily Weather History Graph

Daily Weather History Graph

Search for Another Location

Airport or City:

Trip Planner

Search our weather history database for the weather conditions in past years. The results will help you decide how hot, cold, wet, or windy it might be!

Date:

Astronomy

Jun. 03, 2013 Rise Set
Actual Time 5:43 AM EDT 8:30 PM EDT
Civil Twilight 5:11 AM EDT 9:02 PM EDT
Nautical Twilight 4:32 AM EDT 9:42 PM EDT
Astronomical Twilight 3:46 AM EDT 10:27 PM EDT
Moon 2:38 AM EDT (6/3) 4:00 PM EDT (6/3)
Length of Visible Light 15h 50m
Length of Day
14h 46m
Waning Crescent, 22% of the Moon is Illuminated
Jun 3
Waning Crescent
Jun 8
New
Jun 16
First Quarter
Jun 23
Full
Jun 30
Last Quarter

Hourly Weather History & Observations

Time (EDT) Temp. Dew Point Humidity Pressure Visibility Wind Dir Wind Speed Gust Speed Precip Events Conditions
12:15 AM 69.8 °F 66.2 °F 88% 29.90 in 10.0 mi SSE 3.5 mph - N/A   Mostly Cloudy
12:35 AM 69.8 °F 68.0 °F 94% 29.90 in 10.0 mi Calm Calm - N/A   Overcast
12:55 AM 69.8 °F 68.0 °F 94% 29.90 in 10.0 mi Calm Calm - 0.01 in   Overcast
1:15 AM 69.8 °F 68.0 °F 94% 29.90 in 10.0 mi WSW 3.5 mph - N/A   Overcast
1:35 AM 69.8 °F 66.2 °F 88% 29.90 in 8.0 mi Calm Calm - N/A   Overcast
1:55 AM 69.8 °F 66.2 °F 88% 29.90 in 10.0 mi Calm Calm - N/A   Overcast
2:15 AM 69.8 °F 66.2 °F 88% 29.90 in 10.0 mi Calm Calm - N/A   Overcast
2:35 AM 69.8 °F 66.2 °F 88% 29.89 in 10.0 mi Calm Calm - N/A   Overcast
2:55 AM 69.8 °F 66.2 °F 88% 29.89 in 4.0 mi Calm Calm - 0.12 in   Mostly Cloudy
3:15 AM 69.8 °F 66.2 °F 88% 29.89 in 8.0 mi NW 4.6 mph - 0.02 in Thunderstorm Overcast
3:35 AM 69.8 °F 66.2 °F 88% 29.88 in 10.0 mi NNW 3.5 mph - 0.03 in   Mostly Cloudy
3:55 AM 68.0 °F 66.2 °F 94% 29.88 in 10.0 mi Calm Calm - 0.03 in   Overcast
4:15 AM 68.0 °F 66.2 °F 94% 29.89 in 10.0 mi Calm Calm - N/A   Overcast
4:35 AM 68.0 °F 64.4 °F 88% 29.90 in 10.0 mi Calm Calm - N/A   Mostly Cloudy
4:55 AM 66.2 °F 64.4 °F 94% 29.90 in 6.0 mi Calm Calm - N/A   Overcast
5:15 AM 68.0 °F 66.2 °F 94% 29.90 in 5.0 mi Calm Calm - N/A   Overcast
5:35 AM 66.2 °F 64.4 °F 94% 29.90 in 7.0 mi Calm Calm - N/A   Mostly Cloudy
5:55 AM 68.0 °F 66.2 °F 94% 29.90 in 10.0 mi Calm Calm - N/A   Mostly Cloudy
6:15 AM 68.0 °F 66.2 °F 94% 29.90 in 9.0 mi Calm Calm - N/A   Overcast
6:35 AM 68.0 °F 66.2 °F 94% 29.91 in 10.0 mi Calm Calm - N/A   Overcast
6:55 AM 68.0 °F 66.2 °F 94% 29.91 in 10.0 mi Calm Calm - N/A   Overcast
7:15 AM 68.0 °F 64.4 °F 88% 29.90 in 10.0 mi Calm Calm - N/A   Overcast
7:35 AM 68.0 °F 64.4 °F 88% 29.90 in 10.0 mi NW 4.6 mph - N/A   Overcast
7:55 AM 68.0 °F 64.4 °F 88% 29.90 in 10.0 mi NW 3.5 mph - N/A   Overcast
8:15 AM 68.0 °F 64.4 °F 88% 29.90 in 10.0 mi Calm Calm - N/A   Overcast
8:35 AM 68.0 °F 66.2 °F 94% 29.90 in 10.0 mi Calm Calm - N/A   Mostly Cloudy
8:55 AM 68.0 °F 66.2 °F 94% 29.90 in 10.0 mi West 3.5 mph - N/A   Partly Cloudy
9:15 AM 69.8 °F 66.2 °F 88% 29.91 in 10.0 mi WNW 4.6 mph - N/A   Clear
9:35 AM 69.8 °F 66.2 °F 88% 29.91 in 10.0 mi WNW 4.6 mph - N/A   Partly Cloudy
9:55 AM 71.6 °F 66.2 °F 83% 29.91 in 10.0 mi WNW 5.8 mph - N/A   Scattered Clouds
10:15 AM 71.6 °F 66.2 °F 83% 29.91 in 10.0 mi NW 4.6 mph - N/A   Mostly Cloudy
10:35 AM 71.6 °F 66.2 °F 83% 29.90 in 10.0 mi WNW 5.8 mph - N/A   Mostly Cloudy
10:55 AM 73.4 °F 66.2 °F 78% 29.90 in 10.0 mi Calm Calm - N/A   Overcast
11:15 AM 73.4 °F 66.2 °F 78% 29.90 in 10.0 mi NNW 5.8 mph - N/A   Mostly Cloudy
11:35 AM 73.4 °F 66.2 °F 78% 29.89 in 10.0 mi WNW 6.9 mph - N/A   Mostly Cloudy
11:55 AM 75.2 °F 64.4 °F 69% 29.89 in 10.0 mi Calm Calm - N/A   Partly Cloudy
12:15 PM 75.2 °F 64.4 °F 69% 29.89 in 10.0 mi NW 6.9 mph - N/A   Clear
12:35 PM 77.0 °F 66.2 °F 69% 29.89 in 10.0 mi NNW 3.5 mph - N/A   Mostly Cloudy
12:55 PM 77.0 °F 66.2 °F 69% 29.88 in 10.0 mi Calm Calm - N/A   Mostly Cloudy
1:15 PM 78.8 °F 66.2 °F 65% 29.88 in 10.0 mi WNW 8.1 mph - N/A   Mostly Cloudy
1:35 PM 78.8 °F 66.2 °F 65% 29.87 in 10.0 mi NNW 4.6 mph - N/A   Mostly Cloudy
1:55 PM 78.8 °F 66.2 °F 65% 29.87 in 10.0 mi NNW 3.5 mph - N/A   Overcast
2:15 PM 77.0 °F 66.2 °F 69% 29.87 in 10.0 mi Calm Calm - N/A   Mostly Cloudy
2:35 PM 78.8 °F 66.2 °F 65% 29.87 in 10.0 mi ENE 3.5 mph - N/A   Scattered Clouds
2:55 PM 75.2 °F 64.4 °F 69% 29.87 in 10.0 mi NW 19.6 mph 23.0 mph N/A   Mostly Cloudy
3:15 PM 73.4 °F 62.6 °F 69% 29.88 in 10.0 mi North 4.6 mph - N/A   Mostly Cloudy
3:35 PM 73.4 °F 64.4 °F 73% 29.88 in 10.0 mi North 4.6 mph - N/A   Mostly Cloudy
3:55 PM 75.2 °F 64.4 °F 69% 29.88 in 10.0 mi NNW 5.8 mph - N/A   Partly Cloudy
4:15 PM 75.2 °F 64.4 °F 69% 29.88 in 10.0 mi North 5.8 mph - N/A   Mostly Cloudy
4:35 PM 75.2 °F 64.4 °F 69% 29.87 in 10.0 mi North 5.8 mph - N/A   Mostly Cloudy
4:55 PM 77.0 °F 60.8 °F 57% 29.86 in 10.0 mi NE 9.2 mph - N/A   Partly Cloudy
5:15 PM 77.0 °F 62.6 °F 61% 29.87 in 10.0 mi NE 5.8 mph - N/A   Clear
5:35 PM 77.0 °F 60.8 °F 57% 29.87 in 10.0 mi NNE 3.5 mph - N/A   Clear
5:55 PM 75.2 °F 60.8 °F 61% 29.88 in 10.0 mi Calm Calm - N/A   Partly Cloudy
6:15 PM 75.2 °F 60.8 °F 61% 29.88 in 10.0 mi NNE 4.6 mph - N/A   Partly Cloudy
6:35 PM 75.2 °F 60.8 °F 61% 29.89 in 10.0 mi NNW 3.5 mph - N/A   Clear
6:55 PM 75.2 °F 59.0 °F 57% 29.89 in 10.0 mi NNW 5.8 mph - N/A   Clear
7:15 PM 73.4 °F 57.2 °F 57% 29.90 in 10.0 mi North 3.5 mph - N/A   Clear
7:35 PM 73.4 °F 59.0 °F 61% 29.90 in 10.0 mi Calm Calm - N/A   Clear
7:55 PM 73.4 °F 60.8 °F 65% 29.91 in 10.0 mi NNW 3.5 mph - N/A   Clear
8:15 PM 71.6 °F 60.8 °F 69% 29.91 in 10.0 mi Calm Calm - N/A   Clear
8:35 PM 69.8 °F 60.8 °F 73% 29.91 in 10.0 mi North 3.5 mph - N/A   Clear
8:55 PM 66.2 °F 60.8 °F 83% 29.91 in 10.0 mi Calm Calm - N/A   Clear
9:15 PM 66.2 °F 60.8 °F 83% 29.92 in 10.0 mi Calm Calm - N/A   Clear
9:35 PM 64.4 °F 60.8 °F 88% 29.93 in 10.0 mi Calm Calm - N/A   Clear
9:55 PM 64.4 °F 60.8 °F 88% 29.95 in 10.0 mi NNW 3.5 mph - N/A   Clear
10:15 PM 66.2 °F 57.2 °F 73% 29.96 in 10.0 mi NNW 4.6 mph - N/A   Mostly Cloudy
10:35 PM 68.0 °F 57.2 °F 68% 29.97 in 10.0 mi NNW 5.8 mph - N/A   Overcast
10:55 PM 68.0 °F 57.2 °F 68% 29.98 in 10.0 mi NNW 8.1 mph - N/A   Mostly Cloudy
11:15 PM 68.0 °F 55.4 °F 64% 29.98 in 10.0 mi NNW 6.9 mph - N/A   Overcast
11:35 PM 66.2 °F 53.6 °F 64% 29.98 in 10.0 mi NW 6.9 mph - N/A   Scattered Clouds
11:55 PM 66.2 °F 53.6 °F 64% 29.99 in 10.0 mi NNW 3.5 mph - N/A   Partly Cloudy